H1 CPF 2 NER 2022 8 7 9 219 01 glonass133 H2 1403201 9133 40001 2022 8 7 0 0 0 2022 8 10 23 45 0 900 1 1 0 0 0 1 H9 10 0 59798 0.00000 0 3632512.206 16223971.018 19352708.576 10 0 59798 900.00000 0 1911641.689 14419684.130 20957603.549 10 0 59798 1800.00000 0 -73669.855 12640704.587 22155614.379 10 0 59798 2700.00000 0 -2286153.243 10946204.127 22923362.476 10 0 59798 3600.00000 0 -4677749.641 9388483.581 23245809.541 10 0 59798 4500.00000 0 -7191374.865 8010878.384 23116558.479 10 0 59798 5400.00000 0 -9763071.905 6846055.750 22537987.583 10 0 59798 6300.00000 0 -12324463.547 5914774.777 21521214.689 10 0 59798 7200.00000 0 -14805403.936 5225161.567 20085891.172 10 0 59798 8100.00000 0 -17136719.359 4772529.838 18259828.925 10 0 59798 9000.00000 0 -19252924.272 4539754.587 16078466.610 10 0 59798 9900.00000 0 -21094799.031 4498183.036 13584184.916 10 0 59798 10800.00000 0 -22611721.321 4609044.221 10825483.495 10 0 59798 11700.00000 0 -23763653.152 4825297.218 7856035.382 10 0 59798 12600.00000 0 -24522699.558 5093839.209 4733637.423 10 0 59798 13500.00000 0 -24874173.148 5357978.928 1519077.619 10 0 59798 14400.00000 0 -24817119.547 5560069.513 -1725057.800 10 0 59798 15300.00000 0 -24364281.678 5644187.850 -4935613.208 10 0 59798 16200.00000 0 -23541504.857 5558745.405 -8050103.211 10 0 59798 17100.00000 0 -22386608.476 5258918.509 -11007937.774 10 0 59798 18000.00000 0 -20947772.844 4708793.980 -13751607.826 10 0 59798 18900.00000 0 -19281510.253 3883138.231 -16227807.514 10 0 59798 19800.00000 0 -17450306.740 2768714.374 -18388470.844 10 0 59798 20700.00000 0 -15520034.730 1365091.243 -20191702.429 10 0 59798 21600.00000 0 -13557245.802 -315090.033 -21602584.671 10 0 59798 22500.00000 0 -11626457.385 -2246403.295 -22593846.437 10 0 59798 23400.00000 0 -9787546.831 -4391466.475 -23146381.156 10 0 59798 24300.00000 0 -8093361.173 -6702278.038 -23249605.492 10 0 59798 25200.00000 0 -6587641.301 -9122005.174 -22901652.741 10 0 59798 26100.00000 0 -5303345.805 -11587149.514 -22109398.286 10 0 59798 27000.00000 0 -4261442.700 -14030000.745 -20888317.454 10 0 59798 27900.00000 0 -3470217.634 -16381276.794 -19262179.115 10 0 59798 28800.00000 0 -2925125.678 -18572841.573 -17262581.267 10 0 59798 29700.00000 0 -2609191.192 -20540388.245 -14928337.617 10 0 59798 30600.00000 0 -2493937.595 -22225977.418 -12304726.748 10 0 59798 31500.00000 0 -2540806.950 -23580325.464 -9442618.066 10 0 59798 32400.00000 0 -2703008.956 -24564748.589 -6397490.878 10 0 59798 33300.00000 0 -2927721.125 -25152682.244 -3228365.020 10 0 59798 34200.00000 0 -3158547.308 -25330712.985 3336.753 10 0 59798 35100.00000 0 -3338130.902 -25099080.027 3234973.090 10 0 59798 36000.00000 0 -3410812.520 -24471625.601 6403892.557 10 0 59798 36900.00000 0 -3325220.001 -23475196.138 9448643.206 10 0 59798 37800.00000 0 -3036681.281 -22148519.075 12310160.027 10 0 59798 38700.00000 0 -2509357.957 -20540601.847 14932907.538 10 0 59798 39600.00000 0 -1718008.918 -18708719.595 17265955.462 10 0 59798 40500.00000 0 -649308.761 -16716075.137 19263966.835 10 0 59798 41400.00000 0 697335.859 -14629228.409 20888079.553 10 0 59798 42300.00000 0 2309507.864 -12515402.253 22106664.227 10 0 59798 43200.00000 0 4162052.976 -10439776.494 22895943.707 10 0 59798 44100.00000 0 6217895.161 -8462882.823 23240462.051 10 0 59798 45000.00000 0 8429362.197 -6638208.950 23133393.511 10 0 59798 45900.00000 0 10739967.973 -5010111.758 22576685.028 10 0 59798 46800.00000 0 13086578.842 -3612126.524 21581028.804 10 0 59798 47700.00000 0 15401874.904 -2465742.790 20165664.632 10 0 59798 48600.00000 0 17617004.454 -1579698.093 18358014.955 10 0 59798 49500.00000 0 19664321.286 -949819.008 16193158.827 10 0 59798 50400.00000 0 21480090.402 -559416.008 13713154.282 10 0 59798 51300.00000 0 23007048.677 -380215.177 10966221.709 10 0 59798 52200.00000 0 24196712.612 -373786.883 8005803.842 10 0 59798 53100.00000 0 25011335.623 -493410.378 4889520.820 10 0 59798 54000.00000 0 25425431.992 -686294.367 1678041.086 10 0 59798 54900.00000 0 25426802.812 -896058.343 -1566109.124 10 0 59798 55800.00000 0 25017020.452 -1065368.154 -4779773.384 10 0 59798 56700.00000 0 24211351.168 -1138612.599 -7900404.733 10 0 59798 57600.00000 0 23038119.459 -1064506.191 -10867292.046 10 0 59798 58500.00000 0 21537541.600 -798506.469 -13622748.112 10 0 59798 59400.00000 0 19760078.323 -304942.448 -16113235.525 10 0 59798 60300.00000 0 17764376.844 441236.684 -18290408.040 10 0 59798 61200.00000 0 15614889.598 1453167.002 -20112047.005 10 0 59798 62100.00000 0 13379270.286 2731284.318 -21542875.059 10 0 59798 63000.00000 0 11125656.595 4263080.922 -22555231.985 10 0 59798 63900.00000 0 8919953.313 6023414.788 -23129600.516 10 0 59798 64800.00000 0 6823228.747 7975358.345 -23254973.052 10 0 59798 65700.00000 0 4889332.148 10071551.407 -22929053.308 10 0 59798 66600.00000 0 3162830.131 12256001.911 -22158290.035 10 0 59798 67500.00000 0 1677346.422 14466259.734 -20957743.035 10 0 59798 68400.00000 0 454372.215 16635873.562 -19350784.663 10 0 59798 69300.00000 0 -497405.160 18697029.083 -17368642.909 10 0 59798 70200.00000 0 -1182229.162 20583259.457 -15049794.961 10 0 59798 71100.00000 0 -1616852.988 22232115.999 -12439222.702 10 0 59798 72000.00000 0 -1829589.611 23587688.521 -9587544.247 10 0 59798 72900.00000 0 -1858873.907 24602871.020 -6550037.766 10 0 59798 73800.00000 0 -1751398.075 25241278.708 -3385575.912 10 0 59798 74700.00000 0 -1559899.255 25478736.712 -155491.036 10 0 59798 75600.00000 0 -1340692.803 25304278.418 3077607.378 10 0 59798 76500.00000 0 -1151055.281 24720611.703 6251040.562 10 0 59798 77400.00000 0 -1046567.607 23744033.273 9303270.470 10 0 59798 78300.00000 0 -1078530.503 22403794.279 12175088.797 10 0 59798 79200.00000 0 -1291561.539 20740943.147 14810762.207 10 0 59798 80100.00000 0 -1721475.503 18806693.283 17159111.714 10 0 59798 81000.00000 0 -2393538.157 16660383.098 19174505.479 10 0 59798 81900.00000 0 -3321167.942 14367112.676 20817745.936 10 0 59798 82800.00000 0 -4505141.559 11995154.973 22056834.042 10 0 59798 83700.00000 0 -5933338.431 9613248.753 22867595.854 10 0 59798 84600.00000 0 -7581036.649 7287885.426 23234159.108 10 0 59798 85500.00000 0 -9411749.892 5080702.417 23149270.215 10 0 59799 0.00000 0 -11378572.090 3046091.420 22614445.105 10 0 59799 900.00000 0 -13425976.425 1229119.899 21639949.917 10 0 59799 1800.00000 0 -15491992.272 -336144.865 20244611.949 10 0 59799 2700.00000 0 -17510673.700 -1627843.047 18455462.653 10 0 59799 3600.00000 0 -19414754.353 -2637007.730 16307219.363 10 0 59799 4500.00000 0 -21138378.813 -3367701.174 13841614.847 10 0 59799 5400.00000 0 -22619795.633 -3836596.408 11106587.209 10 0 59799 6300.00000 0 -23803898.572 -4072022.343 8155345.564 10 0 59799 7200.00000 0 -24644508.435 -4112513.460 5045329.824 10 0 59799 8100.00000 0 -25106298.796 -4004926.365 1837085.276 10 0 59799 9000.00000 0 -25166283.681 -3802204.164 -1406925.438 10 0 59799 9900.00000 0 -24814803.910 -3560884.696 -4623548.627 10 0 59799 10800.00000 0 -24055970.180 -3338459.727 -7750179.167 10 0 59799 11700.00000 0 -22907544.135 -3190698.522 -10725988.076 10 0 59799 12600.00000 0 -21400262.720 -3169050.563 -13493113.017 10 0 59799 13500.00000 0 -19576634.779 -3318238.587 -15997787.751 10 0 59799 14400.00000 0 -17489261.160 -3674144.703 -18191388.123 10 0 59799 15300.00000 0 -15198749.668 -4262079.462 -20031374.085 10 0 59799 16200.00000 0 -12771312.852 -5095507.274 -21482109.817 10 0 59799 17100.00000 0 -10276149.589 -6175281.923 -22515546.701 10 0 59799 18000.00000 0 -7782719.974 -7489424.237 -23111756.818 10 0 59799 18900.00000 0 -5358026.864 -9013451.103 -23259307.724 10 0 59799 19800.00000 0 -3064016.561 -10711241.954 -22955472.405 10 0 59799 20700.00000 0 -955205.744 -12536406.420 -22206271.361 10 0 59799 21600.00000 0 923368.177 -14434096.135 -21026346.882 10 0 59799 22500.00000 0 2537789.792 -16343185.390 -19438672.547 10 0 59799 23400.00000 0 3866435.002 -18198730.052 -17474103.909 10 0 59799 24300.00000 0 4900620.206 -19934602.793 -15170779.108 10 0 59799 25200.00000 0 5644706.157 -21486195.346 -12573380.786 10 0 59799 26100.00000 0 6115653.785 -22793075.663 -9732273.247 10 0 59799 27000.00000 0 6342052.065 -23801489.624 -6702531.075 10 0 59799 27900.00000 0 6362659.744 -24466603.292 -3542877.399 10 0 59799 28800.00000 0 6224522.983 -24754392.219 -314551.924 10 0 59799 29700.00000 0 5980748.559 -24643098.897 2919869.856 10 0 59799 30600.00000 0 5688026.690 -24124197.229 6097683.850 10 0 59799 31500.00000 0 5404007.967 -23202823.251 9157267.820 10 0 59799 32400.00000 0 5184645.063 -21897653.524 12039271.949 10 0 59799 33300.00000 0 5081611.443 -20240235.463 14687766.724 10 0 59799 34200.00000 0 5139906.106 -18273796.710 17051325.979 10 0 59799 35100.00000 0 5395745.770 -16051582.261 19084024.360 10 0 59799 36000.00000 0 5874833.945 -13634787.656 20746329.997 10 0 59799 36900.00000 0 6591080.731 -11090173.429 22005875.108 10 0 59799 37800.00000 0 7545828.394 -8487459.219 22838089.613 10 0 59799 38700.00000 0 8727616.826 -5896605.120 23226685.320 10 0 59799 39600.00000 0 10112500.354 -3385092.785 23163980.936 10 0 59799 40500.00000 0 11664904.422 -1015318.823 22651061.125 10 0 59799 41400.00000 0 13338987.973 1157791.455 21697765.838 10 0 59799 42300.00000 0 15080455.935 3088850.722 20322509.295 10 0 59799 43200.00000 0 16828747.136 4743670.857 18551931.268 10 0 59799 44100.00000 0 18519506.807 6100449.478 16420386.497 10 0 59799 45000.00000 0 20087240.336 7150432.344 13969281.445 10 0 59799 45900.00000 0 21468036.854 7898024.231 11246270.674 10 0 59799 46800.00000 0 22602247.779 8360344.160 8304328.204 10 0 59799 47700.00000 0 23437006.874 8566244.413 5200711.999 10 0 59799 48600.00000 0 23928484.791 8554835.733 1995842.200 10 0 59799 49500.00000 0 24043782.102 8373582.233 -1247884.360 10 0 59799 50400.00000 0 23762380.090 8076047.984 -4467319.143 10 0 59799 51300.00000 0 23077087.438 7719392.228 -7599801.412 10 0 59799 52200.00000 0 21994442.423 7361720.855 -10584386.938 10 0 59799 53100.00000 0 20534553.592 7059407.725 -13363040.836 10 0 59799 54000.00000 0 18730385.764 6864500.551 -15881770.525 10 0 59799 54900.00000 0 16626521.763 6822322.050 -18091676.300 10 0 59799 55800.00000 0 14277452.388 6969368.370 -19949898.914 10 0 59799 56700.00000 0 11745466.798 7331593.836 -21420446.117 10 0 59799 57600.00000 0 9098231.892 7923154.311 -22474882.737 10 0 59799 58500.00000 0 6406161.962 8745661.841 -23092871.817 10 0 59799 59400.00000 0 3739688.043 9787981.543 -23262557.435 10 0 59799 60300.00000 0 1166540.036 11026578.926 -22980782.893 10 0 59799 61200.00000 0 -1250846.266 12426402.735 -22253141.109 10 0 59799 62100.00000 0 -3457690.838 13942266.218 -21093857.100 10 0 59799 63000.00000 0 -5408903.286 15520669.073 -19525505.458 10 0 59799 63900.00000 0 -7070706.093 17101984.073 -17578568.623 10 0 59799 64800.00000 0 -8421781.709 18622917.365 -15290844.579 10 0 59799 65700.00000 0 -9453897.577 20019140.117 -12706715.206 10 0 59799 66600.00000 0 -10171984.771 21227981.974 -9876289.127 10 0 59799 67500.00000 0 -10593668.553 22191074.220 -6854435.148 10 0 59799 68400.00000 0 -10748271.783 22856832.443 -3699724.409 10 0 59799 69300.00000 0 -10675333.945 23182675.009 -473301.292 10 0 59799 70200.00000 0 -10422708.694 23136884.478 2762295.562 10 0 59799 71100.00000 0 -10044320.364 22700033.806 5944339.737 10 0 59799 72000.00000 0 -9597674.061 21865917.103 9011127.887 10 0 59799 72900.00000 0 -9141224.349 20641945.306 11903171.812 10 0 59799 73800.00000 0 -8731713.417 19048989.236 14564348.921 10 0 59799 74700.00000 0 -8421590.980 17120675.554 16942988.896 10 0 59799 75600.00000 0 -8256624.800 14902163.742 18992875.747 10 0 59799 76500.00000 0 -8273802.808 12448453.854 20674145.971 10 0 59799 77400.00000 0 -8499615.725 9822294.313 21954065.445 10 0 59799 78300.00000 0 -8948793.281 7091775.606 22807670.015 10 0 59799 79200.00000 0 -9623548.238 4327708.860 23218257.201 10 0 59799 80100.00000 0 -10513361.308 1600897.416 23177719.171 10 0 59799 81000.00000 0 -11595317.436 -1020585.968 22686710.024 10 0 59799 81900.00000 0 -12834980.874 -3474003.666 21754643.466 10 0 59799 82800.00000 0 -14187773.688 -5704331.408 20399520.114 10 0 59799 83700.00000 0 -15600801.102 -7666311.451 18647586.886 10 0 59799 84600.00000 0 -17015047.936 -9326095.224 16532834.182 10 0 59799 85500.00000 0 -18367854.354 -10662406.932 14096339.877 10 0 59800 0.00000 0 -19595566.832 -11667179.596 11385472.529 10 0 59800 900.00000 0 -20636253.083 -12345637.755 8452967.479 10 0 59800 1800.00000 0 -21432364.250 -12715822.605 5355897.633 10 0 59800 2700.00000 0 -21933233.375 -12807582.279 2154554.479 10 0 59800 3600.00000 0 -22097301.981 -12661069.532 -1088734.562 10 0 59800 4500.00000 0 -21893980.332 -12324812.225 -4310829.723 10 0 59800 5400.00000 0 -21305061.813 -11853439.597 -7449018.230 10 0 59800 6300.00000 0 -20325630.919 -11305162.100 -10442244.091 10 0 59800 7200.00000 0 -18964426.144 -10739112.963 -13232303.211 10 0 59800 8100.00000 0 -17243642.275 -10212665.297 -15764979.772 10 0 59800 9000.00000 0 -15198180.440 -9778839.254 -17991101.295 10 0 59800 9900.00000 0 -12874377.719 -9483909.529 -19867491.678 10 0 59800 10800.00000 0 -10328269.840 -9365314.483 -21357804.026 10 0 59800 11700.00000 0 -7623459.882 -9449955.020 -22433217.764 10 0 59800 12600.00000 0 -4828682.173 -9752954.461 -23072987.367 10 0 59800 13500.00000 0 -2015162.695 -10276931.034 -23264833.201 10 0 59800 14400.00000 0 746114.595 -11011812.863 -23005167.997 10 0 59800 15300.00000 0 3387122.668 -11935202.576 -22299155.630 10 0 59800 16200.00000 0 5845375.933 -13013275.727 -21160601.914 10 0 59800 17100.00000 0 8066278.504 -14202175.070 -19611680.145 10 0 59800 18000.00000 0 10005140.242 -15449842.120 -17682497.071 10 0 59800 18900.00000 0 11628778.616 -16698209.441 -15410507.736 10 0 59800 19800.00000 0 12916641.553 -17885662.089 -12839790.332 10 0 59800 20700.00000 0 13861406.168 -18949665.491 -10020194.791 10 0 59800 21600.00000 0 14469030.037 -19829450.041 -7006381.096 10 0 59800 22500.00000 0 14758254.226 -20468640.264 -3856765.368 10 0 59800 23400.00000 0 14759579.940 -20817718.522 -632393.702 10 0 59800 24300.00000 0 14513762.602 -20836219.967 2604234.959 10 0 59800 25200.00000 0 14069887.078 -20494566.495 5790374.529 10 0 59800 26100.00000 0 13483105.320 -19775462.308 8864242.980 10 0 59800 27000.00000 0 12812131.706 -18674791.849 11766215.872 10 0 59800 27900.00000 0 12116601.529 -17201981.480 14439979.367 10 0 59800 28800.00000 0 11454403.782 -15379808.546 16833620.492 10 0 59800 29700.00000 0 10879100.537 -13243664.400 18900633.770 10 0 59800 30600.00000 0 10437541.600 -10840300.594 20600824.866 10 0 59800 31500.00000 0 10167775.064 -8226109.035 21901093.763 10 0 59800 32400.00000 0 10097342.064 -5465006.155 22776082.321 10 0 59800 33300.00000 0 10242028.111 -2626007.733 23208673.547 10 0 59800 34200.00000 0 10605124.347 219406.016 23190332.533 10 0 59800 35100.00000 0 11177230.829 3000026.583 22721282.007 10 0 59800 36000.00000 0 11936611.272 5647641.650 21810508.398 10 0 59800 36900.00000 0 12850085.528 8099635.064 20475597.501 10 0 59800 37800.00000 0 13874423.356 10301354.477 18742402.014 10 0 59800 38700.00000 0 14958181.751 12208148.153 16644546.518 10 0 59800 39600.00000 0 16043909.056 13786985.959 14222778.712 10 0 59800 40500.00000 0 17070623.202 15017596.882 11524178.962 10 0 59800 41400.00000 0 17976459.416 15893075.624 8601243.131 10 0 59800 42300.00000 0 18701375.052 16419933.117 5510856.712 10 0 59800 43200.00000 0 19189796.464 16617589.541 2313180.545 10 0 59800 44100.00000 0 19393094.954 16517332.055 -929529.436 10 0 59800 45000.00000 0 19271786.001 16160782.416 -4154144.365 10 0 59800 45900.00000 0 18797357.627 15597940.582 -7297901.588 10 0 59800 46800.00000 0 17953649.710 14884888.521 -10299635.464 10 0 59800 47700.00000 0 16737725.198 14081252.814 -13100974.722 10 0 59800 48600.00000 0 15160196.061 13247534.707 -15647482.235 10 0 59800 49500.00000 0 13244989.914 12442421.597 -17889714.553 10 0 59800 50400.00000 0 11028567.184 11720194.259 -19784180.396 10 0 59800 51300.00000 0 8558621.714 11128339.600 -21294179.789 10 0 59800 52200.00000 0 5892319.264 10705469.472 -22390508.187 10 0 59800 53100.00000 0 3094147.616 10479632.789 -23052012.778 10 0 59800 54000.00000 0 233467.741 10467091.136 -23265991.302 10 0 59800 54900.00000 0 -2618132.471 10671608.448 -23028426.743 10 0 59800 55800.00000 0 -5389572.486 11084283.553 -22344054.415 10 0 59800 56700.00000 0 -8012988.873 11683931.714 -21226260.999 10 0 59800 57600.00000 0 -10426309.288 12437998.395 -19696818.138 10 0 59800 58500.00000 0 -12575585.199 13303966.398 -17785456.075 10 0 59800 59400.00000 0 -14416988.101 14231197.091 -15529285.693 10 0 59800 60300.00000 0 -15918387.915 15163128.472 -12972079.930 10 0 59800 61200.00000 0 -17060449.392 16039737.968 -10163428.174 10 0 59800 62100.00000 0 -17837202.402 16800166.879 -7157779.511 10 0 59800 63000.00000 0 -18256063.613 17385396.542 -4013392.810 10 0 59800 63900.00000 0 -18337309.711 17740864.045 -791213.512 10 0 59800 64800.00000 0 -18113025.143 17818907.648 2446301.607 10 0 59800 65700.00000 0 -17625569.063 17580939.070 5636389.374 10 0 59800 66600.00000 0 -16925626.214 16999250.962 8717191.745 10 0 59800 67500.00000 0 -16069923.785 16058383.034 11628950.796 10 0 59800 68400.00000 0 -15118710.230 14755988.505 14315164.236 10 0 59800 69300.00000 0 -14133101.938 13103163.335 16723679.222 10 0 59800 70200.00000 0 -13172409.177 11124222.968 18807703.502 10 0 59800 71100.00000 0 -12291553.636 8855934.203 20526714.460 10 0 59800 72000.00000 0 -11538686.047 6346232.561 21847248.500 10 0 59800 72900.00000 0 -10953104.136 3652476.786 22743555.511 10 0 59800 73800.00000 0 -10563558.602 839311.449 23198105.603 10 0 59800 74700.00000 0 -10387018.785 -2023774.913 23201937.967 10 0 59800 75600.00000 0 -10427950.491 -4865095.957 22754844.643 10 0 59800 76500.00000 0 -10678137.071 -7613509.033 21865384.938 10 0 59800 77400.00000 0 -11117052.153 -10201138.689 20550729.431 10 0 59800 78300.00000 0 -11712769.139 -12565969.351 18836335.670 10 0 59800 79200.00000 0 -12423369.899 -14654199.380 16755460.957 10 0 59800 80100.00000 0 -13198793.808 -16422258.281 14348520.899 10 0 59800 81000.00000 0 -13983049.338 -17838402.743 11662305.578 10 0 59800 81900.00000 0 -14716694.698 -18883824.712 8749068.233 10 0 59800 82800.00000 0 -15339482.202 -19553225.047 5665504.256 10 0 59800 83700.00000 0 -15793053.720 -19854829.057 2471640.743 10 0 59800 84600.00000 0 -16023572.102 -19809843.855 -770341.083 10 0 59800 85500.00000 0 -15984175.966 -19451381.298 -3997326.560 10 0 59801 0.00000 0 -15637152.808 -18822893.223 -7146506.209 10 0 59801 900.00000 0 -14955737.054 -17976186.029 -10156608.657 10 0 59801 1800.00000 0 -13925456.663 -16969100.830 -12969098.465 10 0 59801 2700.00000 0 -12544970.046 -15862957.417 -15529320.371 10 0 59801 3600.00000 0 -10826357.931 -14719871.958 -17787562.924 10 0 59801 4500.00000 0 -8794857.503 -13600062.167 -19700022.305 10 0 59801 5400.00000 0 -6488049.909 -12559254.097 -21229647.655 10 0 59801 6300.00000 0 -3954535.076 -11646299.740 -22346852.114 10 0 59801 7200.00000 0 -1252149.272 -10901105.258 -23030076.626 10 0 59801 8100.00000 0 1554200.422 -10352956.096 -23266196.690 10 0 59801 9000.00000 0 4394994.928 -10019308.187 -23050765.296 10 0 59801 9900.00000 0 7198753.492 -9905094.743 -22388088.352 10 0 59801 10800.00000 0 9894766.294 -10002576.401 -21291132.048 10 0 59801 11700.00000 0 12415796.943 -10291739.837 -19781264.542 10 0 59801 12600.00000 0 14700643.836 -10741227.132 -17887837.356 10 0 59801 13500.00000 0 16696455.437 -11309756.201 -15647614.649 10 0 59801 14400.00000 0 18360704.700 -11947972.171 -13104061.227 10 0 59801 15300.00000 0 19662741.891 -12600651.830 -10306502.788 10 0 59801 16200.00000 0 20584862.504 -13209168.485 -7309174.170 10 0 59801 17100.00000 0 21122846.956 -13714113.757 -4170173.481 10 0 59801 18000.00000 0 21285950.498 -14057966.203 -950341.947 10 0 59801 18900.00000 0 21096344.618 -14187694.571 2287909.337 10 0 59801 19800.00000 0 20588033.889 -14057186.110 5481803.461 10 0 59801 20700.00000 0 19805294.009 -13629397.489 8569409.458 10 0 59801 21600.00000 0 18800696.747 -12878137.338 11490838.635 10 0 59801 22500.00000 0 17632804.620 -11789404.598 14189402.553 10 0 59801 23400.00000 0 16363631.961 -10362225.397 16612710.340 10 0 59801 24300.00000 0 15055978.726 -8608951.838 18713684.342 10 0 59801 25200.00000 0 13770748.680 -6555008.499 20451474.573 10 0 59801 26100.00000 0 12564364.312 -4238095.386 21792254.323 10 0 59801 27000.00000 0 11486386.778 -1706878.651 22709881.544 10 0 59801 27900.00000 0 10577440.676 980778.329 23186413.081 10 0 59801 28800.00000 0 9867530.849 3759971.576 23212461.483 10 0 59801 29700.00000 0 9374822.093 6561212.734 22787387.003 10 0 59801 30600.00000 0 9104933.365 9313084.050 21919320.420 10 0 59801 31500.00000 0 9050776.650 11944982.549 20625015.418 10 0 59801 32400.00000 0 9192947.749 14389839.841 18929532.500 10 0 59801 33300.00000 0 9500652.992 16586704.570 16865759.626 10 0 59801 34200.00000 0 9933133.160 18483079.706 14473778.118 10 0 59801 35100.00000 0 10441524.630 20036916.949 11800085.502 10 0 59801 36000.00000 0 10971078.962 21218184.550 8896690.045 10 0 59801 36900.00000 0 11463646.566 22009942.618 5820094.660 10 0 59801 37800.00000 0 11860318.563 22408880.806 2630190.311 10 0 59801 38700.00000 0 12104113.885 22425296.025 -610918.855 10 0 59801 39600.00000 0 12142596.559 22082511.676 -3840134.675 10 0 59801 40500.00000 0 11930311.005 21415763.805 -6994603.579 10 0 59801 41400.00000 0 11430930.936 20470602.289 -10012949.345 10 0 59801 42300.00000 0 10619029.838 19300875.827 -12836474.771 10 0 59801 43200.00000 0 9481397.254 17966387.105 -15410308.100 10 0 59801 44100.00000 0 8017844.643 16530318.219 -17684471.319 10 0 59801 45000.00000 0 6241466.407 15056535.846 -19614849.353 10 0 59801 45900.00000 0 4178344.877 13606890.235 -21164041.596 10 0 59801 46800.00000 0 1866711.407 12238621.714 -22302079.875 10 0 59801 47700.00000 0 -644401.363 11001983.422 -23006999.741 10 0 59801 48600.00000 0 -3296959.981 9938179.219 -23265255.124 10 0 59801 49500.00000 0 -6026108.692 9077702.104 -23071969.432 10 0 59801 50400.00000 0 -8762635.702 8439141.374 -22431019.260 10 0 59801 51300.00000 0 -11435625.363 8028506.965 -21354949.998 10 0 59801 52200.00000 0 -13975187.071 7839097.689 -19864725.596 10 0 59801 53100.00000 0 -16315148.435 7851917.547 -17989317.700 10 0 59801 54000.00000 0 -18395602.151 8036621.425 -15765142.207 10 0 59801 54900.00000 0 -20165201.925 8352949.613 -13235353.952 10 0 59801 55800.00000 0 -21583113.140 8752590.311 -10449012.880 10 0 59801 56700.00000 0 -22620538.230 9181391.511 -7460137.365 10 0 59801 57600.00000 0 -23261754.214 9581829.091 -4326662.465 10 0 59801 58500.00000 0 -23504619.904 9895627.274 -1109322.849 10 0 59801 59400.00000 0 -23360532.299 10066421.114 2129518.448 10 0 59801 60300.00000 0 -22853834.486 10042348.852 5327073.200 10 0 59801 61200.00000 0 -22020700.050 9778464.784 8421339.985 10 0 59801 62100.00000 0 -20907540.892 9238870.623 11352301.867 10 0 59801 63000.00000 0 -19569005.041 8398474.974 14063086.798 10 0 59801 63900.00000 0 -18065648.206 7244305.986 16501068.391 10 0 59801 64800.00000 0 -16461376.330 5776320.710 18618886.002 10 0 59801 65700.00000 0 -14820765.932 4007675.606 20375364.509 10 0 59801 66600.00000 0 -13206374.139 1964445.065 21736316.058 10 0 59801 67500.00000 0 -11676150.720 -315202.335 22675208.296 10 0 59801 68400.00000 0 -10281060.203 -2782337.504 23173686.049 10 0 59801 69300.00000 0 -9063013.540 -5379060.814 23221936.021 10 0 59801 70200.00000 0 -8053195.876 -8040675.624 22818887.029 10 0 59801 71100.00000 0 -7270860.586 -10698156.457 21972241.206 10 0 59801 72000.00000 0 -6722640.345 -13280810.180 20698334.763 10 0 59801 72900.00000 0 -6402404.358 -15719020.194 19021830.127 10 0 59801 73800.00000 0 -6291667.927 -17946959.711 16975244.467 10 0 59801 74700.00000 0 -6360537.262 -19905160.863 14598322.985 10 0 59801 75600.00000 0 -6569149.595 -21542832.165 11937268.497 10 0 59801 76500.00000 0 -6869547.555 -22819826.950 9043841.879 10 0 59801 77400.00000 0 -7207907.969 -23708179.838 5974350.960 10 0 59801 78300.00000 0 -7527029.969 -24193146.436 2788547.835 10 0 59801 79200.00000 0 -7768975.906 -24273702.453 -451543.241 10 0 59801 80100.00000 0 -7877751.888 -23962481.402 -3682843.477 10 0 59801 81000.00000 0 -7801912.980 -23285154.027 -6842457.854 10 0 59801 81900.00000 0 -7496981.282 -22279276.462 -9868908.800 10 0 59801 82800.00000 0 -6927573.261 -20992656.719 -12703340.004 10 0 59801 83700.00000 0 -6069145.303 -19481309.608 -15290666.096 10 0 59801 84600.00000 0 -4909282.854 -17807087.355 -17580645.264 10 0 59801 85500.00000 0 -3448478.289 -16035086.751 -19528853.713 99